Probability
90 90 97 97 97 97 87 81 87 90 87 65 45 42 42 42 48 48 52 81 81 81 77 61 52 45 52 58 55 58 58 71 65 58 42 42 45 42 29 26 23 16 19
97 90 87 97 100 97 97 100 87 84 81 87 68 58 52 52 71 68 52 68 84 81 77 74 61 58 48 45 55 61 55 65 61 55 48 52 52 45 35 29 26 19 19
94 94 90 87 94 94 94 94 77 84 77 71 68 55 65 68 68 68 68 55 55 74 77 74 77 68 65 58 55 58 55 55 65 61 55 52 58 48 42 32 32 26 23
81 100 94 90 97 97 100 100 97 87 81 71 71 65 74 71 52 65 68 71 55 29 65 81 77 81 65 65 55 71 65 71 74 65 65 55 52 48 35 32 35 26 23
71 87 97 94 90 100 100 65 84 77 81 74 58 65 68 65 68 52 58 52 58 55 35 65 87 84 65 65 65 58 58 65 77 71 58 52 52 52 45 42 42 32 23
77 84 94 94 90 94 90 90 90 81 90 84 35 35 52 61 74 61 55 48 52 55 45 42 65 65 84 77 81 71 68 68 68 65 61 55 55 55 52 48 39 39 39
74 84 87 87 94 100 94 81 87 81 81 81 61 55 48 58 65 71 61 48 42 45 55 61 55 58 32 74 77 84 77 65 71 61 61 58 68 68 58 48 42 39 26
84 65 87 87 94 97 84 84 84 71 71 74 65 45 35 39 68 35 65 65 48 55 45 45 65 74 52 16 13 71 81 77 71 68 65 71 61 65 58 55 45 29 26
77 87 94 84 94 90 81 87 81 71 65 71 65 55 29 16 42 48 61 55 65 65 58 48 55 61 61 58 29 16 68 81 77 61 71 71 68 42 29 32 23 19 19
77 71 81 87 77 81 84 77 77 81 71 58 68 61 52 52 39 19 39 48 58 55 58 39 35 48 58 52 65 32 42 61 68 71 68 65 61 48 29 26 23 29 23
68 68 74 71 74 84 84 81 90 74 74 65 61 52 45 48 35 32 19 29 42 48 55 48 35 45 48 45 55 39 16 26 35 55 61 61 61 58 55 26 16 19 23
61 61 68 65 74 87 81 81 81 71 74 74 68 61 58 48 48 39 23 29 26 35 42 48 45 48 48 42 35 26 16 6 6 10 19 35 52 52 45 29 23 19 23
58 61 55 68 68 77 81 74 77 71 71 61 61 71 61 52 55 48 45 32 26 48 45 52 42 42 39 32 29 16 13 0 0 0 0 0 10 19 26 29 23 23 26
55 61 55 65 68 68 55 71 71 71 71 61 48 58 65 48 45 52 39 35 19 23 32 32 32 35 29 29 23 0 3 0 0 0 0 0 0 0 3 3 3 6 10
55 48 58 68 71 71 68 74 61 61 74 71 55 65 61 55 45 42 48 39 26 13 16 16 32 35 32 32 3 0 13 0 0 0 0 0 0 0 0 0 0 0 0
68 61 55 61 58 58 65 65 58 52 55 61 65 58 55 42 39 42 35 29 39 32 13 19 26 29 29 10 3 6 16 3 0 0 0 0 0 0 0 0 0 0 0
58 61 61 65 61 52 58 58 52 55 45 45 39 39 42 48 45 45 42 26 29 32 10 13 26 26 23 23 10 19 13 10 0 0 0 0 0 0 0 0 0 0 0
58 58 52 52 52 52 58 48 42 42 42 35 32 39 35 29 32 32 29 23 23 23 16 10 19 19 19 23 23 29 13 13 10 0 0 0 0 0 0 0 0 0 0
61 58 58 52 52 48 52 48 42 45 32 32 29 29 32 23 29 19 23 19 19 6 16 10 6 13 16 10 19 16 10 10 3 3 0 0 0 0 0 0 0 0 0
55 55 48 45 52 45 39 42 35 32 29 29 29 29 23 19 19 19 19 19 16 13 10 10 10 10 13 16 13 13 6 13 3 3 3 0 0 0 0 0 0 0 0
45 45 39 35 35 29 16 23 26 19 26 26 23 19 19 13 13 6 6 16 10 6 6 3 6 6 6 10 10 10 3 6 3 3 3 3 0 0 0 0 0 0 0
42 39 32 35 26 19 3 3 6 19 26 26 19 23 19 16 6 3 3 3 3 3 6 10 10 13 3 10 13 3 3 3 0 0 3 3 3 3 0 3 0 0 0
42 42 39 32 26 19 6 3 3 6 16 16 19 19 13 3 0 6 3 3 0 0 0 3 3 10 6 6 6 6 3 3 3 3 3 0 0 3 3 3 0 0 0
35 35 29 26 23 16 3 0 0 0 3 16 16 13 13 13 6 6 3 0 0 3 3 0 0 0 0 6 6 3 6 0 0 0 0 0 0 0 0 0 0 0 0
29 26 19 19 19 13 6 0 0 0 6 6 6 10 10 13 3 0 0 3 3 3 0 0 0 0 0 0 0 0 0 0 0 0 0 0 0 0 0 0 0 0 0
19 19 19 19 16 10 6 0 0 0 6 6 6 3 3 0 0 0 0 0 0 6 0 0 0 0 0 0 0 0 0 0 0 0 0 0 0 0 0 0 0 0 0
Height
5904 5904 5904 5905 5905 5906 5906 5906 5907 5907 5907 5907 5907 5907 5907 5907 5908 5907 5907 5908 5908 5908 5909 5909 5909 5909 5909 5909 5909 5909 5909 5909 5909 5909 5910 5910 5910 5911 5911 5911 5911 5911 5912
5903 5904 5905 5905 5905 5906 5906 5907 5907 5907 5907 5907 5907 5907 5907 5908 5908 5908 5907 5908 5908 5908 5908 5909 5909 5909 5909 5908 5908 5908 5908 5909 5909 5909 5909 5909 5909 5910 5910 5910 5910 5911 5911
5903 5904 5905 5905 5906 5906 5906 5907 5907 5907 5907 5908 5908 5908 5908 5908 5908 5908 5907 5907 5908 5908 5908 5908 5908 5908 5908 5908 5908 5908 5908 5908 5908 5908 5908 5908 5908 5909 5909 5909 5909 5910 5910
5903 5903 5904 5905 5905 5906 5906 5906 5907 5907 5907 5907 5908 5908 5908 5908 5908 5908 5907 5907 5907 5908 5908 5908 5908 5908 5908 5908 5907 5907 5907 5907 5907 5907 5907 5907 5907 5908 5908 5908 5908 5908 5908
5902 5903 5904 5904 5905 5905 5906 5906 5907 5907 5907 5907 5907 5908 5907 5907 5907 5907 5907 5907 5907 5907 5907 5907 5907 5907 5907 5907 5907 5907 5906 5906 5906 5906 5906 5906 5906 5906 5906 5906 5907 5907 5907
5901 5902 5903 5904 5904 5905 5905 5906 5906 5907 5907 5907 5907 5907 5907 5906 5907 5907 5907 5907 5907 5907 5906 5906 5906 5906 5906 5906 5906 5906 5905 5905 5905 5905 5905 5905 5905 5905 5905 5905 5905 5905 5905
5901 5901 5902 5903 5903 5904 5905 5905 5906 5906 5907 5907 5907 5907 5907 5906 5907 5907 5907 5906 5906 5906 5906 5906 5905 5905 5905 5905 5905 5904 5904 5904 5904 5904 5903 5903 5903 5903 5903 5903 5903 5902 5902
5900 5901 5901 5902 5902 5903 5904 5904 5905 5905 5906 5906 5906 5906 5906 5907 5906 5906 5906 5905 5905 5904 5904 5904 5904 5904 5904 5903 5903 5903 5903 5903 5903 5902 5902 5902 5901 5901 5901 5901 5900 5900 5900
5899 5899 5900 5901 5901 5902 5902 5903 5903 5904 5905 5905 5905 5906 5905 5905 5905 5905 5905 5904 5904 5904 5903 5903 5903 5902 5902 5902 5901 5901 5901 5901 5901 5900 5900 5900 5899 5899 5898 5898 5897 5897 5897
5898 5898 5899 5900 5900 5901 5901 5901 5902 5903 5903 5904 5904 5904 5904 5903 5904 5903 5903 5902 5902 5902 5902 5901 5901 5901 5900 5900 5899 5899 5899 5899 5898 5898 5898 5897 5896 5896 5895 5895 5894 5894 5893
5896 5897 5898 5898 5898 5899 5899 5900 5900 5901 5901 5902 5902 5902 5902 5902 5902 5902 5901 5901 5900 5900 5899 5899 5899 5898 5898 5897 5897 5897 5896 5896 5895 5895 5894 5894 5893 5893 5892 5891 5891 5890 5889
5895 5895 5896 5897 5897 5897 5897 5898 5898 5899 5899 5900 5900 5900 5900 5900 5899 5899 5899 5898 5898 5897 5897 5896 5896 5895 5895 5894 5894 5894 5893 5892 5892 5891 5891 5890 5889 5889 5888 5887 5886 5886 5885
5894 5894 5895 5895 5895 5895 5895 5896 5896 5896 5897 5897 5897 5897 5897 5897 5897 5896 5896 5895 5895 5894 5894 5893 5892 5892 5891 5891 5890 5890 5889 5888 5887 5887 5886 5885 5884 5883 5883 5882 5881 5880 5880
5893 5893 5893 5893 5893 5893 5893 5894 5894 5894 5894 5894 5894 5894 5894 5894 5893 5893 5892 5892 5891 5891 5890 5889 5888 5887 5886 5886 5885 5884 5884 5883 5882 5881 5880 5879 5878 5877 5877 5876 5875 5874 5873
5892 5891 5891 5891 5891 5891 5891 5891 5891 5891 5890 5890 5890 5891 5890 5890 5890 5889 5888 5888 5887 5886 5885 5884 5884 5883 5881 5880 5880 5878 5877 5876 5876 5875 5874 5873 5872 5870 5870 5869 5868 5867 5866
5890 5890 5889 5889 5889 5889 5888 5888 5888 5888 5887 5887 5887 5887 5886 5886 5885 5885 5884 5883 5882 5881 5880 5879 5878 5876 5875 5874 5874 5872 5871 5870 5869 5868 5867 5865 5864 5863 5862 5861 5860 5859 5858
5889 5888 5887 5887 5886 5886 5886 5886 5885 5885 5884 5883 5883 5882 5882 5881 5881 5880 5879 5878 5877 5875 5874 5873 5871 5870 5868 5867 5867 5866 5865 5863 5862 5861 5859 5858 5857 5855 5854 5853 5852 5851 5849
5887 5887 5886 5885 5884 5884 5883 5883 5882 5881 5880 5880 5879 5878 5878 5877 5876 5874 5873 5872 5871 5870 5868 5866 5865 5863 5861 5860 5859 5858 5857 5855 5854 5853 5851 5850 5848 5847 5845 5844 5843 5841 5840
5886 5885 5884 5883 5882 5881 5880 5879 5878 5878 5877 5876 5875 5874 5873 5872 5870 5869 5868 5866 5865 5863 5862 5860 5858 5856 5855 5853 5852 5850 5848 5847 5845 5844 5843 5841 5839 5838 5836 5835 5833 5832 5830
5883 5882 5881 5880 5879 5878 5876 5875 5874 5874 5872 5871 5870 5869 5867 5866 5865 5863 5862 5860 5859 5857 5855 5853 5851 5849 5848 5846 5844 5842 5840 5839 5837 5835 5834 5832 5830 5828 5826 5825 5823 5822 5820
5880 5879 5878 5877 5876 5874 5873 5871 5870 5869 5868 5866 5865 5864 5862 5861 5859 5857 5855 5854 5852 5850 5848 5846 5844 5842 5840 5838 5836 5834 5832 5830 5828 5826 5824 5823 5821 5818 5817 5815 5813 5811 5809
5877 5876 5875 5873 5872 5870 5869 5867 5866 5864 5863 5861 5860 5858 5856 5854 5853 5851 5849 5847 5845 5843 5841 5838 5837 5834 5832 5830 5828 5826 5824 5822 5820 5818 5815 5813 5811 5808 5806 5805 5802 5800 5798
5873 5872 5871 5869 5868 5866 5864 5863 5861 5859 5858 5856 5854 5852 5850 5848 5846 5844 5841 5839 5837 5835 5833 5831 5828 5826 5824 5821 5819 5817 5815 5812 5810 5808 5805 5803 5801 5798 5796 5793 5791 5789 5786
5870 5868 5866 5865 5864 5862 5860 5858 5856 5854 5852 5850 5848 5846 5843 5841 5839 5837 5834 5832 5830 5827 5825 5822 5820 5817 5815 5812 5810 5808 5806 5803 5801 5798 5796 5793 5790 5788 5785 5782 5780 5777 5774
5865 5864 5862 5860 5859 5857 5855 5853 5851 5849 5847 5844 5842 5839 5837 5834 5832 5829 5827 5824 5822 5819 5816 5814 5811 5809 5806 5803 5801 5799 5796 5793 5791 5788 5785 5782 5779 5776 5774 5771 5767 5764 5762
5861 5859 5857 5856 5854 5851 5849 5847 5845 5843 5841 5838 5835 5833 5830 5827 5824 5821 5819 5816 5814 5811 5808 5806 5803 5800 5797 5794 5792 5789 5786 5783 5780 5778 5774 5771 5768 5765 5762 5759 5756 5753 5749
Wind_Speed
2 2 2 3 3 2 2 2 2 2 2 1 1 0 0 1 0 0 1 1 1 1 1 1 1 1 1 2 2 2 2 2 3 3 3 3 3 3 3 2 2 2 3
3 2 2 3 3 2 2 2 1 2 2 1 1 1 1 0 0 1 1 1 1 1 1 1 2 2 2 2 2 3 3 3 3 3 3 4 3 4 4 3 3 3 4
5 4 4 3 3 3 2 2 2 2 2 2 2 1 1 1 1 1 1 1 1 1 2 2 2 2 2 2 2 3 3 4 4 4 4 4 4 5 5 5 5 5 5
5 5 5 4 4 3 3 3 2 2 2 2 1 1 1 2 2 1 1 1 1 2 2 3 3 3 3 3 3 3 4 4 4 5 5 5 5 6 6 6 6 6 6
6 5 5 5 4 4 3 2 2 2 2 2 2 2 2 2 1 1 1 1 2 2 3 3 4 3 4 4 4 4 4 4 4 4 5 5 6 6 7 7 7 7 8
6 6 6 6 5 4 4 3 3 3 3 2 2 2 2 2 2 2 2 2 2 3 3 4 4 4 4 4 5 5 5 5 5 5 5 6 7 7 8 8 8 9 9
6 7 6 7 6 5 4 4 5 4 4 4 3 3 3 3 3 3 4 4 4 4 4 4 4 5 5 5 5 6 6 6 6 6 7 7 8 8 8 9 9 10 10
5 6 7 7 6 6 6 5 6 6 5 5 4 4 4 4 4 4 5 5 5 5 5 5 6 6 6 6 7 7 7 7 7 7 8 8 8 9 10 10 11 11 11
6 6 6 6 6 6 6 7 7 7 6 6 6 6 5 5 5 5 6 6 6 6 7 7 7 7 7 7 7 8 8 8 8 8 9 10 10 11 11 11 12 12 12
7 7 7 7 7 7 7 7 7 7 7 7 7 7 7 7 7 7 8 7 8 9 9 8 8 8 9 8 8 9 10 10 10 10 11 12 12 13 13 13 14 14 14
7 7 7 7 8 8 8 8 8 9 9 9 8 9 9 8 8 9 9 9 10 10 10 10 10 10 11 11 11 11 12 13 13 13 14 14 15 15 16 16 16 16 16
7 7 8 8 8 9 9 9 10 10 11 11 11 10 11 11 11 11 11 11 11 12 12 12 12 12 13 13 14 14 15 15 16 16 17 18 18 18 19 19 20 20 19
6 7 7 8 7 8 9 10 11 12 12 12 13 13 13 13 14 14 13 14 14 14 14 15 15 15 15 16 16 17 18 18 19 19 20 21 21 21 21 22 22 23 22
7 7 7 8 9 10 10 11 12 13 14 14 15 15 16 16 16 16 15 15 16 16 17 17 18 19 18 18 19 20 20 21 21 22 23 24 24 24 24 24 24 24 25
7 8 9 9 10 12 12 12 13 13 14 16 16 17 18 18 18 18 18 19 19 19 19 20 21 21 22 22 22 23 23 23 24 24 25 26 26 26 26 26 26 27 27
8 10 10 11 11 12 13 13 14 14 15 15 16 17 18 19 19 20 21 21 22 23 22 23 24 24 24 25 24 25 26 26 27 27 27 27 27 28 28 28 29 29 30
10 10 10 11 12 12 13 14 14 15 16 16 17 18 19 20 21 22 22 23 24 25 25 25 25 25 26 26 26 27 28 29 29 30 30 29 29 30 30 30 31 32 32
11 12 12 12 12 13 14 15 16 16 17 17 17 18 19 21 22 23 23 24 25 26 26 26 26 27 27 28 28 28 29 30 31 31 31 31 32 32 32 32 32 33 33
13 13 14 14 14 14 15 16 17 17 18 18 19 20 21 22 23 24 24 25 25 26 26 27 27 27 28 29 30 30 31 32 32 32 32 33 33 34 34 33 34 35 35
14 14 15 15 15 15 16 16 17 18 19 20 21 22 23 24 24 24 25 26 27 28 29 29 29 29 29 29 29 30 31 31 31 31 31 32 33 34 34 34 35 36 36
15 16 16 16 16 16 17 17 18 19 20 22 23 24 25 25 26 26 26 28 29 29 30 30 30 30 30 30 30 31 31 31 32 33 33 33 34 34 35 35 36 37 38
17 17 18 17 18 18 19 19 20 21 22 23 24 25 25 26 27 27 27 28 29 29 29 30 30 30 30 30 31 31 32 32 33 33 34 35 35 35 36 36 37 37 37
19 19 19 19 20 20 21 21 21 22 23 24 25 26 27 27 28 28 29 29 30 30 31 31 31 31 31 31 31 31 32 32 32 32 33 34 36 37 38 38 38 39 39
20 20 21 21 21 22 22 22 23 24 25 26 26 27 28 28 28 29 30 31 31 31 32 32 32 31 32 32 32 33 33 34 35 35 35 36 37 39 40 40 41 41 40
21 21 22 22 23 23 24 24 25 25 26 26 27 28 28 28 29 30 31 31 32 32 32 32 31 32 32 33 34 34 35 35 36 36 37 37 38 39 39 41 41 41 41
22 22 23 23 24 24 25 26 27 27 27 27 28 28 29 29 30 31 31 32 32 32 32 32 32 33 34 34 34 34 35 35 36 37 37 37 38 38 39 40 40 40 40
Wind_Direction
254 214 194 190 195 197 184 179 177 185 190 200 224 253 333 90 68 354 291 245 251 239 248 270 281 286 292 294 275 250 235 242 239 237 237 240 241 239 242 243 251 260 266
249 233 226 204 204 214 228 222 211 220 226 237 264 303 330 353 352 322 308 276 248 246 255 277 289 286 287 288 274 254 249 253 251 249 244 244 244 240 242 246 248 257 266
244 240 240 232 232 244 255 256 239 240 244 255 278 294 287 303 329 333 329 294 270 261 265 273 288 285 280 280 277 273 262 257 257 256 251 249 249 247 250 255 259 262 267
238 237 238 236 239 247 256 261 242 237 242 249 263 266 276 302 320 336 339 316 297 282 276 277 279 281 276 275 277 277 273 266 268 267 260 255 253 251 255 258 262 265 269
240 242 243 240 242 252 257 255 245 242 239 236 245 258 276 284 307 321 330 323 315 301 291 285 286 284 281 281 281 280 279 275 275 273 270 267 266 262 262 264 265 266 270
249 249 251 248 249 256 254 251 248 252 249 244 250 257 267 280 294 302 313 313 311 308 308 302 297 288 287 285 282 279 278 277 275 272 273 270 273 274 277 274 271 273 273
258 254 255 255 252 248 249 249 249 255 261 258 262 269 285 289 284 293 296 301 299 297 296 294 296 291 288 285 283 285 281 279 277 273 276 276 275 275 276 281 277 275 275
268 258 253 253 250 251 251 252 252 254 260 263 268 273 277 278 280 286 292 294 295 299 297 290 286 288 288 288 285 282 282 286 283 276 276 278 278 277 276 282 283 278 279
267 259 253 247 250 252 256 257 258 257 262 265 267 268 273 275 284 286 288 291 294 295 292 296 292 291 290 289 288 281 279 282 282 282 279 280 280 280 278 280 282 280 281
270 266 253 252 254 257 257 258 260 259 259 265 268 272 277 282 285 289 291 286 285 287 290 293 295 295 291 288 287 283 282 282 281 280 280 281 282 280 279 280 282 281 279
271 262 256 256 256 256 257 259 261 260 260 265 269 273 276 279 282 285 288 286 285 289 290 292 291 290 288 288 288 287 286 284 282 281 281 281 282 283 281 280 279 279 277
278 265 260 265 267 262 261 264 265 263 263 264 268 274 279 283 283 282 283 284 284 286 287 289 288 289 286 285 286 286 285 283 281 281 281 282 282 282 282 281 279 278 277
281 267 264 268 271 268 267 271 271 270 269 267 268 274 277 281 282 284 284 283 284 284 284 285 285 287 285 284 284 284 284 283 283 282 281 282 282 281 282 281 279 277 277
299 290 280 279 278 278 276 278 281 278 272 271 273 276 278 281 282 283 284 287 287 285 284 284 284 286 284 283 283 282 283 283 282 283 282 280 281 281 282 281 281 279 277
305 300 294 285 283 283 280 282 285 284 281 275 274 277 279 281 281 283 285 286 286 287 286 285 285 286 285 284 283 281 282 283 282 282 283 282 282 280 280 281 280 278 278
311 306 297 290 287 288 286 284 286 288 285 282 279 279 282 283 282 284 286 287 288 287 287 286 286 284 282 283 282 281 280 282 283 283 282 282 281 281 281 280 278 278 277
319 315 306 298 293 292 290 289 287 287 286 284 283 283 283 285 286 285 286 286 288 289 289 287 287 284 283 282 282 282 282 282 283 283 283 282 282 282 282 281 280 280 278
314 309 307 301 299 293 291 291 290 289 289 287 287 288 288 289 288 287 287 287 288 288 288 287 286 285 284 284 282 282 282 282 282 281 283 282 282 281 280 280 280 281 280
310 309 305 300 300 297 293 292 293 293 293 290 288 288 289 290 290 288 288 289 290 289 288 288 287 285 285 286 283 282 282 283 284 283 282 282 281 281 281 280 280 281 280
306 306 305 304 302 299 296 295 295 294 294 292 290 289 289 292 293 292 292 290 289 289 289 289 288 287 286 286 285 286 286 286 285 285 285 284 284 282 280 281 282 282 281
306 305 304 304 303 300 298 299 299 297 295 294 294 294 295 294 294 293 293 293 293 291 291 290 289 289 289 288 286 287 287 287 287 287 287 286 286 285 283 281 282 281 281
303 302 302 302 302 302 301 301 300 300 298 297 296 296 297 297 295 293 294 293 294 294 294 293 293 292 291 289 287 287 287 288 288 288 287 287 286 286 286 284 284 283 283
306 303 302 302 304 304 303 303 302 301 300 298 298 298 297 296 297 296 296 295 295 294 294 293 292 293 292 290 289 288 287 287 288 289 287 286 287 287 286 285 285 285 285
306 305 303 302 301 301 301 302 302 302 301 303 303 302 301 299 298 297 296 296 296 297 296 295 294 293 292 292 290 289 289 288 288 287 288 288 288 288 289 287 287 287 287
303 303 303 303 302 301 300 301 302 302 304 304 304 303 302 301 300 299 298 298 297 296 295 295 295 295 294 292 291 291 290 290 290 289 289 289 288 288 289 290 289 288 288
305 304 304 303 303 303 302 301 302 303 304 305 305 304 304 303 302 301 300 299 299 298 297 296 295 294 294 292 291 291 292 291 292 291 290 290 290 290 290 290 290 291 290